Weather History for Roxboro, NC

Change the Weather History Date:

Tuesday, December 27, 2011

  Actual Average Record
Temperature  
Mean Temperature 50 °F -  
Max Temperature 62 °F 47 °F 74 °F (1982)
Min Temperature 39 °F 25 °F 3 °F (1983)
Degree Days  
Heating Degree Days 14    
Moisture  
Dew Point 39 °F    
Average Humidity 71    
Maximum Humidity 100    
Minimum Humidity 48    
Precipitation  
Precipitation 0.00 in - - ()
Sea Level Pressure  
Sea Level Pressure 29.85 in    
Wind  
Wind Speed 5 mph (South)    
Max Wind Speed 21 mph    
Max Gust Speed 32 mph    
Visibility 9 miles    
Events      
Averages and records for this station are not official NWS values.
T = Trace of Precipitation, MM = Missing Value Source: NWS Daily Summary

Daily Weather History Graph

Daily Weather History Graph

Search for Another Location

Airport:

Trip Planner

Search our weather history database for the weather conditions in past years. The results will help you decide how hot, cold, wet, or windy it might be!

Date:

Astronomy

Dec. 27, 2011 Rise Set
Actual Time 7:25 AM EST 5:08 PM EST
Civil Twilight 6:57 AM EST 5:36 PM EST
Nautical Twilight 6:25 AM EST 6:08 PM EST
Astronomical Twilight 5:53 AM EST 6:40 PM EST
Moon 9:25 AM EST (12/27) 8:33 PM EST (12/27)
Length of Visible Light 10h 39m
Length of Day
9h 42m
Waxing Crescent, 11% of the Moon is Illuminated
Dec 27
Waxing Crescent
Jan 1
First Quarter
Jan 9
Full
Jan 16
Last Quarter
Jan 23
New

Hourly Weather History & Observations

Time (EST) Temp. Windchill Dew Point Humidity Pressure Visibility Wind Dir Wind Speed Gust Speed Precip Events Conditions
12:15 AM 41.0 °F - 28.4 °F 61% 30.25 in 10.0 mi Calm Calm - N/A   Unknown
12:35 AM 39.2 °F - 28.4 °F 65% 30.25 in 10.0 mi Calm Calm - N/A   Unknown
12:55 AM 39.2 °F - 28.4 °F 65% 30.24 in 10.0 mi Calm Calm - N/A   Unknown
1:15 AM 41.0 °F - 28.4 °F 61% 30.21 in 10.0 mi Calm Calm - N/A   Unknown
1:35 AM 42.8 °F 41.1 °F 28.4 °F 57% 30.21 in 10.0 mi South 3.5 mph - N/A   Unknown
1:55 AM 42.8 °F 40.1 °F 28.4 °F 57% 30.20 in 10.0 mi SSE 4.6 mph - N/A   Unknown
2:15 AM 42.8 °F 41.1 °F 28.4 °F 57% 30.20 in 10.0 mi SSE 3.5 mph - N/A   Unknown
2:35 AM 42.8 °F - 28.4 °F 57% 30.20 in 10.0 mi Calm Calm - N/A   Unknown
2:55 AM 42.8 °F - 28.4 °F 57% 30.19 in 10.0 mi Calm Calm - N/A   Unknown
3:15 AM 42.8 °F - 28.4 °F 57% 30.18 in 10.0 mi Calm Calm - N/A   Unknown
3:35 AM 42.8 °F - 30.2 °F 61% 30.15 in 10.0 mi Calm Calm - N/A   Unknown
3:55 AM 39.2 °F - 30.2 °F 70% 30.14 in 10.0 mi Calm Calm - N/A   Unknown
4:15 AM 41.0 °F - 28.4 °F 61% 30.13 in 10.0 mi Calm Calm - N/A   Unknown
4:35 AM 41.0 °F - 28.4 °F 61% 30.12 in 10.0 mi Calm Calm - N/A   Unknown
4:55 AM 41.0 °F - 28.4 °F 61% 30.11 in 10.0 mi Calm Calm - N/A   Unknown
5:15 AM 42.8 °F - 30.2 °F 61% 30.09 in 10.0 mi Calm Calm - N/A   Unknown
5:35 AM 42.8 °F 40.1 °F 30.2 °F 61% 30.07 in 10.0 mi ESE 4.6 mph - N/A   Unknown
5:55 AM 41.0 °F 39.0 °F 30.2 °F 65% 30.05 in 10.0 mi ESE 3.5 mph - N/A   Unknown
6:15 AM 41.0 °F 39.0 °F 30.2 °F 65% 30.04 in 10.0 mi SE 3.5 mph - N/A   Unknown
6:35 AM 41.0 °F 39.0 °F 32.0 °F 70% 30.03 in 10.0 mi SE 3.5 mph - N/A   Unknown
6:55 AM 42.8 °F 40.1 °F 32.0 °F 66% 30.01 in 10.0 mi SE 4.6 mph - N/A   Unknown
7:15 AM 42.8 °F 41.1 °F 30.2 °F 61% 30.00 in 10.0 mi SSE 3.5 mph - N/A   Unknown
7:35 AM 42.8 °F 38.6 °F 32.0 °F 66% 29.99 in 10.0 mi SSE 6.9 mph - N/A   Unknown
7:55 AM 41.0 °F 38.0 °F 33.8 °F 76% 29.98 in 10.0 mi SSE 4.6 mph - N/A   Unknown
8:15 AM 41.0 °F 37.1 °F 35.6 °F 81% 29.95 in 10.0 mi ESE 5.8 mph - N/A   Unknown
8:35 AM 39.2 °F 35.9 °F 35.6 °F 87% 29.94 in 10.0 mi ESE 4.6 mph - N/A   Unknown
8:55 AM 41.0 °F 36.4 °F 37.4 °F 87% 29.90 in 7.0 mi SE 6.9 mph - N/A   Unknown
9:15 AM 42.8 °F 38.0 °F 39.2 °F 87% 29.90 in 10.0 mi SSE 8.1 mph - N/A   Unknown
9:35 AM 42.8 °F 38.6 °F 41.0 °F 93% 29.87 in 7.0 mi SSE 6.9 mph - N/A   Unknown
9:55 AM 44.6 °F 39.2 °F 42.8 °F 93% 29.84 in 7.0 mi SE 10.4 mph - N/A   Unknown
10:15 AM 44.6 °F 39.2 °F 42.8 °F 93% 29.82 in 4.0 mi SE 10.4 mph - N/A   Unknown
10:35 AM 46.4 °F 41.5 °F 44.6 °F 93% 29.78 in 7.0 mi SE 10.4 mph 16.1 mph N/A   Unknown
10:55 AM 46.4 °F 42.9 °F 46.4 °F 100% 29.76 in 7.0 mi SSE 6.9 mph 17.3 mph N/A   Unknown
11:15 AM 46.4 °F 41.1 °F 46.4 °F 100% 29.71 in 7.0 mi SSE 11.5 mph 21.9 mph N/A   Unknown
11:35 AM 48.2 °F - 46.4 °F 93% 29.68 in 7.0 mi SSE 11.5 mph - N/A   Unknown
11:55 AM 50.0 °F - 48.2 °F 94% 29.64 in 5.0 mi South 11.5 mph 18.4 mph N/A   Unknown
12:15 PM 53.6 °F - 51.8 °F 94% 29.59 in 7.0 mi SSE 17.3 mph 26.5 mph N/A   Unknown
12:35 PM 55.4 °F - 55.4 °F 100% 29.56 in 10.0 mi South 20.7 mph 27.6 mph N/A   Unknown
12:55 PM 57.2 °F - 55.4 °F 94% 29.53 in 10.0 mi South 18.4 mph 27.6 mph N/A   Unknown
1:15 PM 57.2 °F - 57.2 °F 100% 29.52 in 7.0 mi South 17.3 mph 25.3 mph N/A   Unknown
1:35 PM 60.8 °F - 57.2 °F 88% 29.52 in 10.0 mi SSW 17.3 mph 31.1 mph N/A   Unknown
1:55 PM 60.8 °F - 57.2 °F 88% 29.52 in 10.0 mi SSW 16.1 mph 32.2 mph N/A   Unknown
2:15 PM 60.8 °F - 57.2 °F 88% 29.52 in 7.0 mi SW 16.1 mph 23.0 mph N/A   Unknown
2:35 PM 62.6 °F - 55.4 °F 77% 29.52 in 10.0 mi WSW 13.8 mph 26.5 mph N/A   Unknown
2:55 PM 62.6 °F - 53.6 °F 72% 29.52 in 10.0 mi West 15.0 mph 20.7 mph N/A   Unknown
3:15 PM 62.6 °F - 50.0 °F 63% 29.52 in 10.0 mi WSW 12.7 mph 23.0 mph N/A   Unknown
3:35 PM 62.6 °F - 48.2 °F 59% 29.53 in 10.0 mi WSW 20.7 mph 29.9 mph N/A   Unknown
3:55 PM 60.8 °F - 46.4 °F 59% 29.55 in 10.0 mi SW 17.3 mph 23.0 mph N/A   Unknown
4:15 PM 59.0 °F - 39.2 °F 48% 29.56 in 10.0 mi WSW 20.7 mph 31.1 mph N/A   Unknown
4:35 PM 57.2 °F - 39.2 °F 51% 29.57 in 10.0 mi WSW 15.0 mph 32.2 mph N/A   Unknown
4:55 PM 55.4 °F - 39.2 °F 54% 29.58 in 10.0 mi WSW 15.0 mph 29.9 mph N/A   Unknown
5:15 PM 55.4 °F - 39.2 °F 54% 29.60 in 10.0 mi WSW 11.5 mph 18.4 mph N/A   Unknown
5:35 PM 55.4 °F - 39.2 °F 54% 29.61 in 10.0 mi WSW 11.5 mph 23.0 mph N/A   Unknown
5:55 PM 55.4 °F - 39.2 °F 54% 29.61 in 10.0 mi WSW 10.4 mph 16.1 mph N/A   Unknown
6:15 PM 55.4 °F - 41.0 °F 58% 29.62 in 10.0 mi WSW 9.2 mph - N/A   Unknown
6:35 PM 53.6 °F - 41.0 °F 62% 29.62 in 10.0 mi WSW 8.1 mph 16.1 mph N/A   Unknown
6:55 PM 53.6 °F - 41.0 °F 62% 29.62 in 10.0 mi WSW 9.2 mph 19.6 mph N/A   Unknown
7:15 PM 53.6 °F - 41.0 °F 62% 29.62 in 10.0 mi WSW 12.7 mph 17.3 mph N/A   Unknown
7:35 PM 53.6 °F - 41.0 °F 62% 29.63 in 10.0 mi WSW 12.7 mph - N/A   Unknown
7:55 PM 53.6 °F - 42.8 °F 67% 29.64 in 10.0 mi WSW 6.9 mph 18.4 mph N/A   Unknown
8:15 PM 51.8 °F - 42.8 °F 71% 29.64 in 7.0 mi WSW 6.9 mph 18.4 mph N/A   Unknown
8:35 PM 51.8 °F - 42.8 °F 71% 29.65 in 10.0 mi WSW 6.9 mph - N/A   Unknown
8:55 PM 51.8 °F - 41.0 °F 67% 29.65 in 10.0 mi West 12.7 mph 21.9 mph N/A   Unknown
9:15 PM 51.8 °F - 39.2 °F 62% 29.66 in 10.0 mi West 12.7 mph 20.7 mph N/A   Unknown
9:35 PM 50.0 °F - 37.4 °F 62% 29.67 in 10.0 mi West 10.4 mph 17.3 mph N/A   Unknown
9:55 PM 48.2 °F - 35.6 °F 62% 29.67 in 10.0 mi West 5.8 mph 16.1 mph N/A   Unknown
10:15 PM 48.2 °F - 33.8 °F 58% 29.68 in 10.0 mi West 10.4 mph - N/A   Unknown
10:35 PM 48.2 °F - 32.0 °F 54% 29.69 in 10.0 mi West 6.9 mph 17.3 mph N/A   Unknown
10:55 PM 46.4 °F 42.4 °F 32.0 °F 57% 29.69 in 10.0 mi West 8.1 mph 18.4 mph N/A   Unknown
11:15 PM 46.4 °F 42.9 °F 30.2 °F 53% 29.70 in 10.0 mi West 6.9 mph - N/A   Unknown
11:35 PM 46.4 °F 42.9 °F 30.2 °F 53% 29.69 in 10.0 mi West 6.9 mph - N/A   Unknown
11:55 PM 46.4 °F 41.5 °F 30.2 °F 53% 29.69 in 10.0 mi West 10.4 mph 17.3 mph N/A   Unknown